[Iaude] MPEC K02: 2024 JR17 [a=1.48,e=0.43,i=16.3,H=23.0]

mpec at cfa.harvard.edu mpec at cfa.harvard.edu
Thu May 16 06:43:39 EDT 2024


M.P.E.C. 2024-K02                                  Issued 2024 May 16, 10:42 UT

     The Minor Planet Electronic Circulars contain information on unusual
         minor planets, routine data on comets and natural satellites,
         and occasional editorial announcements.  They are published
    on behalf of Division F of the International Astronomical Union by the
          Minor Planet Center, Smithsonian Astrophysical Observatory,
                          Cambridge, MA 02138, U.S.A.
			  
             Prepared using the Tamkin Foundation Computer Network

                              MPC at CFA.HARVARD.EDU
            URL https://www.minorplanetcenter.net/    ISSN 1523-6714

                                   2024 JR17                                    


Observations:
     K24J17R*1C2024 05 14.42091217 29 18.078+25 47 52.84         21.04GVEK002G96
     K24J17R 1C2024 05 14.42607717 29 18.856+25 48 02.48         21.12GVEK002G96
     K24J17R 1C2024 05 14.43126317 29 19.662+25 48 11.30         21.42GVEK002G96
     K24J17R 1C2024 05 14.43643117 29 20.425+25 48 20.27         21.02GVEK002G96
     K24J17R KC2024 05 14.45000017 29 22.488+25 48 43.27         22.06GVEK002I52
     K24J17R KC2024 05 14.45207717 29 22.765+25 48 47.16         21.93GVEK002I52
     K24J17R  C2024 05 14.45214117 29 22.645+25 48 45.62         21.1 GVEK002H01
     K24J17R KC2024 05 14.45414917 29 23.093+25 48 50.87         22.17GVEK002I52
     K24J17R  C2024 05 14.45620517 29 23.269+25 48 52.77         21.0 GVEK002H01
     K24J17R  C2024 05 14.45939617 29 23.753+25 48 58.28         20.7 GVEK002H01
     K24J17R  C2024 05 14.46286817 29 24.292+25 49 04.25         20.8 GVEK002H01
     K24J17R 1C2024 05 14.87134 17 30 37.72 +26 00 57.9          21.0 VXEK002033
     K24J17R 1C2024 05 14.87430 17 30 38.23 +26 01 03.4          20.8 VXEK002033
     K24J17R 1C2024 05 14.87725 17 30 38.71 +26 01 08.9          20.7 VXEK002033
     K24J17R 1C2024 05 14.97911 17 30 55.55 +26 04 19.6          21.7 VXEK002033
     K24J17R 1C2024 05 14.98130 17 30 55.91 +26 04 24.1          21.0 VXEK002033
     K24J17R 6C2024 05 15.13074 17 31 20.65 +26 09 08.0          20.9 GVEK002Z84
     K24J17R 6C2024 05 15.13716 17 31 21.67 +26 09 19.7          20.4 GVEK002Z84
     K24J17R 6C2024 05 15.14360 17 31 22.73 +26 09 30.9          20.8 GVEK002Z84
     K24J17R KC2024 05 15.25313017 31 45.505+26 12 50.54         21.36GVEK002I52
     K24J17R KC2024 05 15.25469117 31 45.746+26 12 53.53         20.40GVEK002I52
     K24J17R KC2024 05 15.25624817 31 45.973+26 12 56.63         20.69GVEK002I52
     K24J17R KC2024 05 16.22619917 34 46.65 +26 43 24.6          21.5 GVEK002H21
     K24J17R KC2024 05 16.23179417 34 47.63 +26 43 35.6          22.0 GVEK002H21
     K24J17R KC2024 05 16.23878417 34 48.90 +26 43 49.9          21.7 GVEK002H21

Observer details:
033 Karl Schwarzschild Observatory, Tautenburg.  Observers C. Heogner, F.
    Ludwig, M. Hartmann, B. Stecklum.  Measurer B. Stecklum.  1.34-m f/3
    Schmidt + CCD.
G96 Mt. Lemmon Survey.  Observer D. Rankin.  Measurers T. Beuden, V. F.
    Carvajal, D. Fay, J. B. Fazekas, D. C. Fuls, A. R. Gibbs, A. D. Grauer, H.
    Groeller, J. K. Hogan, R. A. Kowalski, S. M. Larson, G. J. Leonard, D.
    Rankin, R. L. Seaman, F. C. Shelly, K. W. Wierzchos.  1.5-m reflector +
    10K CCD.
H01 Magdalena Ridge Observatory, Socorro.  Observers W. H. Ryan, E. V. Ryan.
    Measurer W. H. Ryan.  2.4-m f/8.9 Ritchey-Chretien + CCD.
H21 Astronomical Research Observatory, Westfield.  Observer R. Holmes.
    Measurers T. Linder, R. Holmes, L. Horn.  0.76-m f/3.0 astrograph + CCD.
I52 Steward Observatory, Mt. Lemmon Station.  Observer K. W. Wierzchos.
    Measurers T. Beuden, V. F. Carvajal, D. Fay, J. B. Fazekas, D. C. Fuls, A.
    R. Gibbs, A. D. Grauer, H. Groeller, J. K. Hogan, R. A. Kowalski, S. M.
    Larson, G. J. Leonard, D. Rankin, R. L. Seaman, F. C. Shelly, K. W.
    Wierzchos.  1.0-m prime focus + CCD.
Z84 Calar Alto-Schmidt.  Observers M. Micheli, R. Kresken.  Measurers R.
    Kresken, M. Micheli, F. Ocana, L. Conversi.  0.8-m f/3 Schmidt + CCD.

Orbital elements:
2024 JR17                                                Earth MOID = 0.0327 AU
Epoch 2024 Mar. 31.0 TT = JDT 2460400.5                 Veres                   
M 299.70621              (2000.0)            P               Q                  
n   0.54491266     Peri.  233.35950     +0.68772013     +0.67061861             
a   1.4845157      Node    82.66471     -0.54380979     +0.72960492             
e   0.4258584      Incl.   16.28075     -0.48094899     +0.13396769             
P   1.81           H   23.03          G   0.15           U   9                  
Residuals in seconds of arc
240514 G96  0.1+  0.1-    240514 H01  0.1-  0.0     240515 Z84  0.2+  0.0
240514 G96  0.1+  0.5+    240514 H01  0.0   0.1-    240515 I52  0.3+  0.2-
240514 G96  0.4+  0.3+    240514 033  0.4+  0.1-    240515 I52  0.0   0.2-
240514 G96  0.1+  0.2+    240514 033  0.5+  0.1-    240515 I52  0.4-  0.1-
240514 I52  0.3+  0.4-    240514 033  0.3+  0.2-    240516 H21  0.2+  0.0
240514 I52  0.3-  0.1-    240514 033  0.4+  0.1+    240516 H21  0.2-  0.2-
240514 H01  0.1-  0.2-    240514 033  0.5+  0.5+    240516 H21  0.0   0.2+
240514 I52  0.1-  0.0     240515 Z84  0.1+  0.3+
240514 H01  0.0   0.0     240515 Z84  0.1-  0.4+

Ephemeris:
2024 JR17                a,e,i = 1.48, 0.43, 16                  q = 0.8523
Date    TT    R. A. (2000) Decl.     Delta      r    Elong.  Phase     V
2024 04 16    16 41 53.3 +16 02 06   0.4463  1.3226   127.3    37.1    23.4
...
2024 05 01    17 02 42.9 +20 28 52   0.3065  1.2236   128.9    39.8    22.5
...
2024 05 09    17 16 31.7 +23 23 50   0.2371  1.1705   128.0    42.8    21.9
...
2024 05 15    17 30 58.1 +26 05 17   0.1870  1.1310   126.0    46.3    21.4
2024 05 16    17 34 01.2 +26 36 22   0.1789  1.1245   125.5    47.0    21.3
2024 05 17    17 37 20.4 +27 09 05   0.1708  1.1180   125.0    47.8    21.2
...
2024 05 23    18 06 12.9 +31 14 37   0.1234  1.0794   120.0    54.4    20.6
...
2024 05 31    19 57 18.1 +40 07 46   0.06780 1.0298   101.7    74.6    19.9
...
2024 06 15    03 05 53.4 +02 18 37   0.09517 0.9466    41.6   134.6    24.0

M. P. C. Staff               (C) Copyright 2024 MPC           M.P.E.C. 2024-K02





More information about the Iaude mailing list